Last 24 Hours

Red Mountain

10 Minute Data | America/Los_Angeles
as of 9/5/26 10:35 AM PDT
Date & Time Temp (°F) Dew Pt (°F) RH (%) Wind Spd (mph) Wind Dir (°) Wind Gust (mph) Wind Gst Dir (°) Daily Max Temp (°F) Daily Min Temp (°F)
9/5/26 - 1030 72.7 30.5 21 7.8 SW | 220 14.2 SSW | 196 74.7 63.6
9/5/26 - 1020 72.3 28.7 20 9.2 SW | 233 14.5 SW | 226 74.7 63.6
9/5/26 - 1010 73.4 28.7 19 7.2 SSW | 204 12.7 SSW | 194 74.7 63.6
9/5/26 - 1000 71.9 28.0 20 6.0 SW | 221 12.5 SSW | 201 73.5 63.6
9/5/26 - 0950 72.6 19.5 13 6.4 S | 185 11.6 SSE | 168 73.5 63.6
9/5/26 - 0940 72.3 22.8 16 5.1 SSW | 196 8.9 SSW | 208 72.8 63.6
9/5/26 - 0930 71.2 23.7 17 5.8 SSW | 198 11.0 S | 173 72.3 63.6
9/5/26 - 0920 71.5 24.1 17 5.2 S | 171 11.1 S | 171 72.3 63.6
9/5/26 - 0910 70.3 24.7 18 5.1 S | 188 8.9 S | 174 71.4 63.6
9/5/26 - 0900 69.7 25.8 19 5.3 S | 170 11.9 SSE | 150 70.7 63.6
9/5/26 - 0850 69.5 26.2 20 5.3 SSE | 149 8.8 SSE | 159 70.7 63.6
9/5/26 - 0840 68.5 27.0 21 5.6 SE | 132 9.0 SE | 138 69.5 63.6
9/5/26 - 0830 68.3 27.9 22 4.9 SE | 136 9.0 SSE | 164 69.5 63.6
9/5/26 - 0820 67.9 28.8 23 5.5 SE | 145 8.6 SE | 139 69.5 63.6
9/5/26 - 0810 68.1 29.2 23 4.8 SE | 143 8.1 SE | 134 69.5 63.6
9/5/26 - 0800 68.5 28.4 22 4.2 SE | 145 8.5 SSE | 165 69.5 63.6
9/5/26 - 0750 68.5 28.1 22 2.3 S | 171 5.6 SSW | 200 69.5 63.6
9/5/26 - 0740 69.0 29.2 23 0.9 ESE | 107 3.7 SE | 124 69.5 63.6
9/5/26 - 0730 67.9 29.8 24 1.2 E | 87 3.7 E | 98 68.7 63.6
9/5/26 - 0720 67.4 30.3 25 1.2 E | 88 3.4 E | 94 68.0 63.6
9/5/26 - 0710 66.3 30.5 26 3.2 E | 94 4.5 ESE | 114 66.6 63.6
9/5/26 - 0700 65.7 30.5 27 4.4 E | 82 6.4 E | 80 66.2 63.6
9/5/26 - 0650 65.6 30.8 27 4.6 E | 79 7.2 E | 80 65.7 63.6
9/5/26 - 0640 65.4 30.8 27 3.9 ENE | 77 6.6 ENE | 70 65.6 63.6
9/5/26 - 0630 65.3 29.4 26 2.3 ENE | 76 5.4 ENE | 78 65.6 63.6
9/5/26 - 0620 65.5 29.0 25 3.5 ESE | 110 6.0 ESE | 110 65.6 63.6
9/5/26 - 0610 65.4 29.0 25 3.0 ESE | 121 5.4 ESE | 106 65.6 63.6
9/5/26 - 0600 65.3 28.8 25 3.1 SE | 134 5.1 SE | 133 65.5 63.6
9/5/26 - 0550 64.7 29.6 27 1.8 SE | 146 3.1 SE | 131 64.9 63.6
9/5/26 - 0540 64.8 28.7 26 1.2 S | 186 2.2 S | 172 64.9 63.6
9/5/26 - 0530 64.6 28.8 26 0.4 S | 176 1.2 S | 171 64.9 63.6
9/5/26 - 0520 64.5 29.3 26 0.1 SSW | 203 1.2 SSW | 206 64.9 63.6
9/5/26 - 0510 64.8 29.9 27 1.1 SE | 139 3.1 SSE | 151 64.9 63.6
9/5/26 - 0500 64.6 30.1 27 2.9 SE | 145 3.9 SE | 143 64.8 63.6
9/5/26 - 0450 64.3 30.2 28 4.8 SE | 146 5.6 SSE | 152 64.8 63.6
9/5/26 - 0440 64.4 30.2 27 4.8 SSE | 148 6.6 SSE | 150 64.8 63.6
9/5/26 - 0430 64.6 30.2 27 4.5 SE | 138 5.8 SE | 135 64.8 63.6
9/5/26 - 0420 64.7 30.1 27 4.0 SE | 146 4.7 SE | 146 64.8 63.6
9/5/26 - 0410 64.6 30.2 27 3.6 SSE | 147 4.5 SSE | 154 64.8 63.6
9/5/26 - 0400 64.7 30.5 28 3.5 SSE | 150 4.2 SSE | 163 64.8 63.6
9/5/26 - 0350 64.8 30.6 28 3.2 SSE | 147 3.9 SE | 146 64.8 63.6
9/5/26 - 0340 64.5 30.9 28 2.5 SE | 143 3.4 SE | 138 64.7 63.6
9/5/26 - 0330 64.2 30.9 28 4.8 SE | 146 5.6 SSE | 147 64.7 63.6
9/5/26 - 0320 64.1 31.0 29 5.3 SE | 144 5.8 SE | 146 64.7 63.6
9/5/26 - 0310 64.1 31.2 29 5.2 SE | 139 5.8 SE | 139 64.7 63.6
9/5/26 - 0300 64.1 31.1 29 5.4 SE | 143 6.1 SE | 139 64.7 63.6
9/5/26 - 0250 63.9 31.1 29 5.5 SSE | 150 6.1 SSE | 151 64.7 63.6
9/5/26 - 0240 63.9 31.4 29 5.9 SSE | 153 6.9 SSE | 154 64.7 63.6
9/5/26 - 0230 64.0 31.6 30 6.5 SSE | 154 7.5 SSE | 152 64.7 63.6
9/5/26 - 0220 64.0 31.8 30 7.1 SSE | 150 8.0 SSE | 156 64.7 63.6
9/5/26 - 0210 64.2 31.8 30 7.4 SSE | 147 8.9 SSE | 148 64.7 63.6
9/5/26 - 0200 64.3 31.7 29 6.3 SE | 145 8.8 SSE | 148 64.7 63.6
9/5/26 - 0150 64.6 31.8 29 6.2 SE | 143 7.0 SE | 145 64.7 63.6
9/5/26 - 0140 64.6 32.3 30 6.4 SE | 140 7.4 SE | 139 64.7 63.6
9/5/26 - 0130 64.6 32.6 30 6.9 SE | 134 8.2 SE | 133 64.7 63.6
9/5/26 - 0120 64.2 32.7 31 8.7 SE | 132 9.9 SE | 132 64.3 63.6
9/5/26 - 0110 63.9 35.0 34 8.8 SE | 132 9.6 SE | 133 64.1 63.6
9/5/26 - 0100 63.5 37.9 39 8.6 SE | 131 9.2 SE | 129 73.7 59.3
9/5/26 - 0050 63.3 40.6 43 7.4 SE | 140 8.7 SE | 139 73.7 59.3
9/5/26 - 0040 63.4 41.1 44 7.0 SE | 143 8.0 SSE | 148 73.7 59.3
9/5/26 - 0030 63.6 40.9 43 5.6 SE | 135 6.6 SE | 144 73.7 59.3
9/5/26 - 0020 63.2 40.6 43 5.7 SE | 135 6.6 SE | 130 73.7 59.3
9/5/26 - 0010 63.1 40.6 44 3.4 SE | 136 6.1 SE | 133 73.7 59.3
9/5/26 - 0000 63.3 40.5 43 1.9 SE | 135 4.2 SE | 126 73.7 59.3
9/4/26 - 2350 63.9 40.6 42 1.9 WSW | 239 3.9 SW | 234 73.7 59.3
9/4/26 - 2340 64.8 40.2 40 1.5 SSW | 198 3.9 SW | 231 73.7 59.3
9/4/26 - 2330 64.5 39.9 40 0.6 ESE | 115 1.3 ENE | 70 73.7 59.3
9/4/26 - 2320 64.4 40.2 41 0.7 SSE | 156 2.8 SSE | 150 73.7 59.3
9/4/26 - 2310 64.4 40.7 42 1.4 WNW | 292 2.9 WNW | 290 73.7 59.3
9/4/26 - 2300 64.5 41.8 43 1.8 W | 278 2.3 W | 280 73.7 59.3
9/4/26 - 2250 64.9 40.7 41 1.9 WSW | 254 3.8 W | 264 73.7 59.3
9/4/26 - 2240 64.8 40.9 42 1.0 WNW | 288 2.0 NNW | 330 73.7 59.3
9/4/26 - 2230 65.1 41.2 42 1.8 NW | 309 2.6 NW | 313 73.7 59.3
9/4/26 - 2220 65.1 39.9 40 1.1 NW | 307 1.6 NW | 314 73.7 59.3
9/4/26 - 2210 64.6 39.8 40 1.0 NW | 316 2.3 N | 354 73.7 59.3
9/4/26 - 2200 63.6 39.9 42 2.5 NNE | 13 3.8 NNE | 24 73.7 59.3
9/4/26 - 2150 63.5 40.0 42 3.8 NNE | 22 5.0 NNE | 21 73.7 59.3
9/4/26 - 2140 64.1 41.0 43 3.3 NNE | 18 5.0 NNE | 19 73.7 59.3
9/4/26 - 2130 64.1 40.3 42 4.3 NNE | 21 5.2 NNE | 21 73.7 59.3
9/4/26 - 2120 63.8 40.9 43 3.5 N | 9 4.3 N | 8 73.7 59.3
9/4/26 - 2110 63.2 43.2 48 3.5 N | 360 5.4 NNE | 15 73.7 59.3
9/4/26 - 2100 63.7 41.3 44 5.9 NNE | 14 6.6 NNE | 14 73.7 59.3
9/4/26 - 2050 63.9 40.8 43 6.8 NNE | 12 7.9 N | 10 73.7 59.3
9/4/26 - 2040 64.2 41.2 43 6.2 N | 3 6.9 N | 8 73.7 59.3
9/4/26 - 2030 64.3 42.1 44 5.1 NNW | 336 6.5 N | 0 73.7 59.3
9/4/26 - 2020 63.8 44.4 49 5.0 WNW | 303 6.1 WNW | 301 73.7 59.3
9/4/26 - 2010 63.6 44.2 49 5.5 WNW | 298 6.9 WNW | 289 73.7 59.3
9/4/26 - 2000 63.4 45.3 52 5.8 W | 264 8.6 WSW | 257 73.7 59.3
9/4/26 - 1950 63.8 44.6 50 5.1 WSW | 257 8.5 WSW | 258 73.7 59.3
9/4/26 - 1940 63.6 43.1 47 4.5 WSW | 254 5.5 WSW | 255 73.7 59.3
9/4/26 - 1930 63.0 39.7 42 5.1 WSW | 251 6.1 WSW | 247 73.7 59.3
9/4/26 - 1920 62.6 40.0 43 6.3 WSW | 245 9.3 WSW | 246 73.7 59.3
9/4/26 - 1910 63.4 40.3 43 7.7 WSW | 243 9.3 WSW | 243 73.7 59.3
9/4/26 - 1900 64.2 40.6 42 6.9 WSW | 244 9.9 WSW | 248 73.7 59.3
9/4/26 - 1850 64.9 42.0 43 7.0 WSW | 242 9.3 WSW | 255 73.7 59.3
9/4/26 - 1840 65.0 43.3 45 6.6 WSW | 242 9.4 SW | 215 73.7 59.3
9/4/26 - 1830 65.8 42.9 43 7.0 WSW | 243 10.0 SW | 232 73.7 59.3
9/4/26 - 1820 65.8 43.0 43 6.0 SW | 231 12.2 WSW | 252 73.7 59.3
9/4/26 - 1810 65.6 44.9 47 8.1 SW | 235 11.7 SW | 235 73.7 59.3
9/4/26 - 1800 65.9 45.0 47 10.4 WSW | 237 15.4 SW | 228 73.7 59.3
9/4/26 - 1750 66.8 44.0 44 10.8 SW | 233 16.2 SW | 228 73.7 59.3
9/4/26 - 1740 67.4 42.9 41 11.8 WSW | 237 18.0 WSW | 238 73.7 59.3
9/4/26 - 1730 67.5 43.7 42 11.2 SW | 231 18.2 WSW | 240 73.7 59.3
9/4/26 - 1720 67.9 43.9 42 13.4 SW | 236 19.2 SW | 233 73.7 59.3
9/4/26 - 1710 68.8 43.7 40 12.9 WSW | 237 20.2 WSW | 250 73.7 59.3
9/4/26 - 1700 69.2 43.1 39 11.8 SW | 236 17.6 SW | 235 73.7 59.3
9/4/26 - 1650 68.6 44.7 42 11.1 SW | 234 18.8 SW | 234 73.7 59.3
9/4/26 - 1640 70.1 45.8 42 11.5 WSW | 241 17.8 WSW | 244 73.7 59.3
9/4/26 - 1630 69.5 45.2 42 11.7 SW | 230 19.4 SW | 218 73.7 59.3
9/4/26 - 1620 71.2 46.2 41 9.6 WSW | 238 18.9 WSW | 245 73.7 59.3
9/4/26 - 1610 69.9 46.6 43 12.3 SW | 234 20.1 WSW | 244 73.7 59.3
9/4/26 - 1600 69.8 46.4 43 13.0 SW | 230 23.0 WSW | 242 73.7 59.3
9/4/26 - 1550 71.8 46.2 40 8.9 SW | 232 19.1 SW | 232 73.7 59.3
9/4/26 - 1540 70.0 45.9 42 13.8 WSW | 237 21.7 SW | 233 73.7 59.3
9/4/26 - 1530 70.6 44.8 39 10.1 SW | 235 18.7 WSW | 252 73.7 59.3
9/4/26 - 1520 71.4 44.6 38 10.5 SW | 231 18.6 SW | 234 73.7 59.3
9/4/26 - 1510 71.0 43.7 37 12.6 WSW | 250 20.8 WSW | 253 73.7 59.3
9/4/26 - 1500 71.3 43.1 36 11.8 SW | 234 20.1 WSW | 249 73.7 59.3
9/4/26 - 1450 70.6 42.7 36 11.2 SW | 227 19.0 WSW | 252 73.7 59.3
9/4/26 - 1440 71.1 43.4 37 13.6 SW | 235 21.8 SW | 230 73.7 59.3
9/4/26 - 1430 71.7 43.7 36 12.3 WSW | 237 19.9 WSW | 257 73.7 59.3
9/4/26 - 1420 72.0 43.1 35 10.5 WSW | 238 19.4 WSW | 245 73.7 59.3
9/4/26 - 1410 71.4 43.4 36 9.1 SW | 235 17.9 SW | 234 73.7 59.3
9/4/26 - 1400 70.6 43.1 37 9.7 SW | 231 17.2 SW | 236 73.5 59.3
9/4/26 - 1350 71.1 42.9 36 12.0 WSW | 241 21.0 WSW | 245 73.5 59.3
9/4/26 - 1340 71.2 42.6 36 10.5 W | 280 18.6 WSW | 256 73.5 59.3
9/4/26 - 1330 69.2 43.3 39 8.6 WNW | 282 15.7 W | 272 71.0 59.3
9/4/26 - 1320 69.1 44.0 40 10.4 W | 260 17.0 W | 274 70.1 59.3
9/4/26 - 1310 68.6 44.2 41 8.6 W | 267 15.6 SW | 224 70.1 59.3
9/4/26 - 1300 68.1 44.0 42 10.7 W | 275 17.5 W | 276 68.8 59.3
9/4/26 - 1250 67.2 44.6 44 9.5 WNW | 285 15.9 WNW | 287 68.2 59.3
9/4/26 - 1240 67.4 44.6 44 10.3 W | 262 18.2 W | 266 68.2 59.3
9/4/26 - 1230 67.1 45.9 46 8.7 W | 261 16.7 W | 262 68.2 59.3
9/4/26 - 1220 66.4 45.6 47 10.1 WSW | 255 20.0 W | 260 67.4 59.3
9/4/26 - 1210 66.0 45.8 48 9.8 WSW | 248 14.1 SW | 236 67.4 59.3
9/4/26 - 1200 66.2 46.7 49 8.7 WSW | 250 16.2 WSW | 243 67.4 59.3
9/4/26 - 1150 66.3 47.8 51 8.8 WSW | 257 15.6 WSW | 258 67.4 59.3
9/4/26 - 1140 66.2 47.7 51 8.7 W | 259 14.5 W | 276 67.4 59.3
9/4/26 - 1130 65.8 47.2 51 7.9 WSW | 252 12.8 W | 260 67.4 59.3
9/4/26 - 1120 65.8 47.0 51 7.6 WSW | 242 14.0 SW | 236 67.4 59.3
9/4/26 - 1110 65.3 48.0 54 8.6 WSW | 240 14.9 WSW | 242 67.4 59.3
9/4/26 - 1100 65.5 47.8 53 8.1 WSW | 253 12.8 W | 272 67.4 59.3
9/4/26 - 1050 66.5 45.9 47 7.4 SW | 236 12.5 W | 261 67.4 59.3
9/4/26 - 1040 65.8 42.2 42 7.5 SW | 228 11.5 SW | 225 67.4 59.3
9/4/26 - 1030 65.5 41.6 42 6.9 SW | 236 11.6 SW | 230 67.4 59.3
Max 73.4 48.0 54 13.8 - 23.0 - 74.7 63.6
Avg 66.5 37.7 36 6.4 - 10.1 - - -
Min 62.6 19.5 13 0.1 - 1.2 - 64.1 59.3